Terminal Aerodrome Forecast
Issued by NWS North Platte, NE

Home | Current Version | Previous Version | Graphics & Text | Print | Product List | Glossary On
Versions: 1 2 3 4 5 6 7 8 9 10 11 12 13 14 15 16 17 18
000
FTUS43 KLBF 181728
TAFVTN
TAF
KVTN 181728Z 1818/1918 33011KT P6SM BKN200
     FM190000 01014G21KT P6SM BKN020
     FM190400 01016G22KT 5SM -SN OVC015
     FM191200 01015G22KT P6SM OVC015=

USA.gov is the U.S. government's official web portal to all federal, state and local government web resources and services.